Location: Potomac
(46.8816°N, 113.5795°W)
Time: 00:33:11
(UTC+00:00)

SEEDS - Pass Details

Date: 07 July 2022
Orbit: 579 x 598 km, 97.6° (Epoch: 06 August)

Event Time Altitude Azimuth Distance (km) Brightness Sun altitude
Rises 10:34:37 0° 32° (NNE) 2,809 ? -10.1°
Reaches altitude 10° 10:37:58 10° 62° (ENE) 1,902 ? -9.7°
Maximum altitude 10:39:49 13° 89° (E) 1,728 ? -9.5°
Drops below altitude 10° 10:41:39 10° 115° (ESE) 1,895 ? -9.3°
Sets 10:44:58 0° 145° (SE) 2,788 ? -8.9°
